RH
52 48 45 41 49 51 49 59 52 44 52 53 58 70 74 72 68 54 50 58 51 42 46 44 39 35 32 25 23 38 52 51 49 49 47 46 46 45 42 44 46 43 39 27 16 18 18 18 20 20 21 21 21 22 21 22 22 21 22 28 33 33 33 36 38 43 45 47 46 42 40 39 39 39 39 40 40 41 41 40 40 37 38 42 47 50
51 39 36 49 58 55 54 66 67 57 58 69 73 72 73 69 58 46 41 47 43 38 41 40 37 32 28 26 31 46 55 52 49 49 48 47 47 44 43 47 46 42 38 27 18 19 18 20 21 21 22 21 23 23 22 24 23 22 26 32 35 32 31 33 35 41 44 44 43 41 41 40 39 40 41 44 45 44 44 42 42 42 45 50 51 53
50 33 29 47 56 60 73 76 65 55 52 60 66 55 48 46 44 41 40 43 42 35 30 32 38 34 32 38 49 59 58 51 48 46 46 46 44 45 46 45 40 36 34 26 20 20 19 21 22 22 23 23 24 24 24 24 23 25 32 36 34 32 32 32 31 35 37 38 38 37 39 38 39 42 43 47 47 45 45 44 46 50 52 52 50 50
30 25 37 59 61 57 67 70 56 47 44 42 41 39 36 36 36 34 33 38 42 39 34 40 44 38 46 60 61 62 60 55 52 49 49 47 45 47 44 37 30 29 29 25 22 21 21 22 23 24 24 24 25 25 26 25 26 31 36 36 34 33 34 33 34 35 36 36 37 36 38 38 41 45 48 49 48 47 48 49 52 54 53 51 50 49
22 31 50 67 71 59 48 51 49 35 39 49 44 38 36 33 33 32 35 42 43 45 47 44 38 39 57 71 64 59 60 57 53 55 55 51 48 45 38 32 30 30 29 27 23 23 24 23 24 25 25 26 27 27 28 27 31 36 35 33 32 33 34 35 36 36 37 38 38 39 41 43 45 50 53 53 52 52 53 55 57 56 53 52 51 48
36 51 54 47 53 57 36 27 37 34 36 51 48 40 35 29 35 42 48 51 43 42 46 40 40 51 57 61 63 62 61 57 53 56 53 45 42 37 32 32 33 31 30 29 26 26 26 24 26 27 27 29 28 29 30 32 36 34 31 31 31 33 34 35 36 36 38 39 40 43 45 49 54 58 59 57 57 58 60 62 59 55 53 51 50 48
39 51 53 41 39 47 39 27 35 40 36 43 46 46 45 42 48 52 52 54 45 36 38 38 45 52 45 44 61 67 63 61 59 60 54 40 36 34 30 30 29 28 30 30 29 27 27 27 29 30 29 30 30 30 32 33 33 29 28 31 31 33 35 35 36 37 39 42 43 46 50 55 60 62 60 57 59 61 62 61 57 54 53 50 50 47
40 39 46 48 40 33 29 23 30 38 34 42 51 50 49 49 52 55 54 58 53 42 45 50 49 52 50 52 70 74 64 63 64 64 57 40 34 34 31 31 29 29 31 33 33 30 30 31 31 32 32 31 31 32 31 29 28 28 30 32 32 33 34 35 37 39 41 44 47 50 52 55 57 57 56 56 58 60 60 59 56 54 53 50 49 47
42 32 35 39 37 32 20 13 32 46 35 41 56 54 53 55 55 58 59 60 59 50 48 52 49 52 54 54 70 75 64 65 69 67 59 42 36 36 34 33 31 32 35 34 35 34 34 34 33 33 32 31 32 31 28 26 28 30 31 32 33 33 34 36 37 39 41 43 45 47 48 49 49 50 52 55 58 59 59 58 56 54 53 52 49 46
37 44 48 34 30 37 30 26 44 50 35 42 56 47 47 53 53 56 56 51 55 58 52 44 40 43 43 38 55 71 69 72 72 67 60 47 43 41 35 34 33 36 40 38 37 36 34 34 33 33 32 32 32 29 26 27 30 32 32 33 33 33 35 36 38 39 39 40 41 43 44 46 48 51 54 56 57 60 60 59 58 57 54 51 48 44
42 57 58 40 37 36 34 40 50 53 46 45 46 36 30 33 39 61 74 57 45 53 61 52 37 39 42 34 47 70 77 80 76 69 61 49 44 42 36 36 38 39 41 41 39 37 35 35 34 34 33 33 31 27 28 30 31 33 33 33 34 34 36 37 37 38 38 40 41 43 45 49 53 56 56 54 55 59 60 60 59 57 54 50 47 41
50 56 51 51 56 43 37 38 41 59 63 43 35 32 27 27 39 66 84 67 42 37 48 52 40 40 44 37 48 66 66 66 66 60 54 45 41 41 38 38 41 43 43 43 43 40 38 37 37 36 34 32 30 28 30 31 32 33 33 34 35 36 37 37 38 38 39 41 43 45 48 53 56 56 54 51 52 56 60 62 61 59 55 49 43 42
45 48 42 48 53 40 35 32 34 55 58 38 37 40 38 42 49 55 56 53 45 32 30 39 39 38 38 39 52 56 44 44 45 42 40 38 36 37 40 43 46 48 47 45 45 43 41 41 40 37 33 31 29 29 31 31 33 34 34 35 36 37 38 38 39 40 42 44 45 48 50 52 53 53 54 55 58 64 68 67 63 60 53 46 48 60
41 46 40 36 36 34 32 29 33 42 41 37 41 45 45 47 50 50 46 46 45 34 28 29 36 43 38 45 60 49 37 40 38 36 36 34 35 38 45 51 51 49 47 46 46 44 43 42 40 36 31 29 29 30 31 32 33 34 35 36 37 38 38 39 41 42 45 46 46 47 48 50 54 57 60 63 68 73 72 67 62 54 47 52 67 76
38 38 38 30 27 32 31 31 34 31 35 44 43 41 40 39 45 51 51 50 45 41 37 29 45 63 49 53 70 57 48 46 37 38 40 39 45 46 49 53 49 48 47 46 47 44 41 40 38 33 29 29 30 31 32 32 34 35 36 38 38 39 40 41 43 44 46 46 45 47 50 54 58 59 58 58 64 71 71 64 55 48 52 69 79 73
39 35 39 38 36 35 32 41 45 31 35 49 47 45 48 46 46 49 50 50 47 51 53 43 55 68 53 55 65 54 50 47 38 42 45 48 55 52 53 56 52 51 50 47 46 42 40 39 35 31 29 29 30 31 32 33 35 36 37 39 39 40 42 43 45 45 45 45 46 50 53 55 56 55 53 51 57 69 70 59 52 57 71 79 72 60
40 36 36 40 43 36 33 48 51 35 34 45 45 42 46 44 39 42 50 51 53 58 56 48 49 51 49 55 53 44 47 46 43 49 50 51 56 55 58 62 60 56 49 46 44 41 41 39 33 29 28 29 29 30 33 33 34 36 37 40 41 42 44 45 46 46 46 47 50 51 52 52 52 51 52 51 56 67 64 56 63 77 81 70 57 53
43 41 38 36 37 37 44 54 53 46 42 43 45 40 42 48 51 57 59 54 59 60 48 44 46 44 47 55 51 47 52 51 49 53 53 52 56 60 63 61 59 53 46 45 43 41 43 39 32 29 28 29 30 31 33 34 35 37 38 41 43 45 46 46 46 47 48 50 51 51 50 52 51 51 54 58 62 66 62 64 75 78 67 56 54 59
53 48 45 40 34 37 49 49 44 50 48 42 44 42 43 54 61 65 62 56 63 67 55 46 46 47 51 58 58 54 55 55 54 56 58 59 60 62 60 54 50 46 43 44 42 42 46 41 32 29 29 30 31 32 34 35 37 38 40 42 44 47 47 47 48 48 50 50 50 51 51 51 51 53 58 62 64 62 60 64 69 63 56 58 66 71
56 48 48 45 37 37 42 39 35 43 51 50 48 44 44 48 53 56 55 55 62 68 65 56 50 56 59 55 53 55 57 59 61 64 65 63 60 57 52 47 44 43 43 45 43 43 46 41 32 30 32 33 33 34 35 36 39 40 43 44 46 48 48 48 50 50 51 50 50 51 50 50 52 55 58 58 59 59 58 59 60 59 62 70 74 73
55 50 50 44 43 42 36 34 33 31 41 51 49 48 49 47 52 58 55 57 63 62 64 67 62 57 51 44 45 54 58 58 64 69 65 59 55 49 45 43 42 43 45 45 44 45 44 39 33 32 35 35 34 36 36 38 41 42 45 47 48 50 50 50 51 51 51 50 50 50 51 53 54 56 56 54 56 61 61 62 64 65 68 70 69 69
54 56 59 54 51 44 30 29 32 27 33 47 50 54 59 54 53 60 62 64 69 64 60 70 74 60 43 39 46 53 55 56 61 63 57 52 48 44 43 43 43 45 46 45 45 45 43 38 35 37 38 36 36 37 38 40 43 45 46 49 50 51 51 52 52 51 50 49 49 51 53 55 56 55 54 54 58 62 63 63 65 66 67 69 71 75
55 61 70 70 59 40 33 42 50 45 41 44 48 54 63 60 52 58 64 61 65 68 60 65 75 64 44 40 46 50 52 52 52 52 52 51 48 47 46 45 44 44 43 45 45 44 42 40 41 42 39 37 38 39 41 43 45 46 48 51 53 52 52 53 52 50 49 49 51 53 55 56 56 53 52 53 57 59 59 61 63 66 70 74 78 81
58 63 62 60 51 37 37 44 50 50 44 41 45 53 61 57 49 57 63 63 74 77 65 67 72 58 42 41 43 46 49 49 49 51 53 53 51 49 48 45 43 43 43 44 43 44 46 46 45 42 39 39 41 41 43 45 46 48 52 54 54 53 53 53 52 50 49 51 53 55 55 54 53 52 51 53 55 56 58 62 66 69 73 76 79 80
50 56 54 55 54 47 43 41 41 43 41 37 40 52 58 52 52 62 65 72 81 66 54 68 72 50 38 39 38 42 51 54 52 52 52 54 53 49 46 44 42 43 46 47 47 50 52 49 44 41 40 42 42 43 46 46 48 52 56 56 53 52 53 52 51 51 51 52 55 55 54 53 52 51 51 52 55 56 59 63 65 68 70 73 75 77
45 48 52 57 64 61 57 52 45 41 41 40 39 46 51 47 52 60 63 74 76 58 53 67 67 49 38 37 41 50 58 59 57 55 54 53 51 47 45 45 45 48 52 54 56 56 53 47 43 42 43 42 43 46 47 47 51 57 57 55 53 53 53 52 51 52 53 54 55 55 55 53 51 50 51 53 56 57 59 61 63 65 67 69 72 75
55 58 55 54 62 60 54 48 40 39 48 49 46 49 50 49 53 60 69 74 67 63 65 59 55 58 50 45 55 62 63 64 61 59 55 49 47 47 46 47 51 54 56 58 59 56 50 46 44 43 43 43 45 46 48 51 57 60 57 54 54 54 52 51 52 53 55 56 56 55 54 52 51 51 52 54 56 57 59 61 63 65 67 68 72 76
56 66 64 60 62 54 48 46 40 44 50 47 49 53 52 54 56 57 64 61 56 72 78 54 50 64 59 55 66 68 64 64 60 54 51 48 48 48 47 51 59 60 58 59 62 59 52 47 45 45 44 46 47 48 52 59 62 60 56 53 54 54 51 52 55 55 55 55 55 54 53 52 52 52 53 55 58 59 61 63 65 66 68 70 73 75
60 72 73 65 62 56 51 48 43 46 47 44 49 51 48 54 58 55 57 55 56 72 72 52 53 64 62 62 67 65 62 60 54 48 47 48 49 49 52 59 65 63 59 63 66 62 54 48 46 47 48 49 51 54 60 64 63 59 56 54 54 52 51 54 58 58 56 56 55 54 53 52 52 53 57 58 58 58 59 63 67 67 69 72 73 74
63 75 82 73 65 58 51 47 45 48 49 46 47 47 45 49 53 55 56 53 53 59 55 53 61 63 60 63 63 57 54 52 47 46 48 48 50 55 62 64 63 63 64 66 66 60 52 48 48 51 55 55 58 63 66 65 62 59 57 56 55 53 54 57 59 58 57 56 56 55 53 53 56 60 61 58 55 54 57 63 67 68 70 73 74 76
54 71 87 81 71 61 50 48 48 48 49 49 48 46 46 47 51 56 56 52 57 63 57 59 72 71 60 57 57 51 48 48 48 50 51 48 51 62 70 69 67 69 69 66 63 57 51 53 58 61 62 62 65 69 67 63 62 59 57 57 55 55 58 59 59 58 56 57 56 54 55 61 67 67 63 60 60 61 63 66 69 70 72 75 77 80
62 76 87 84 79 66 48 45 47 42 47 61 61 50 49 53 54 55 55 55 60 68 71 78 89 84 64 53 54 51 49 51 52 52 52 51 58 68 74 75 73 71 69 66 62 58 57 61 65 65 67 70 71 70 65 62 61 59 59 58 57 59 60 60 60 57 56 58 55 54 64 72 72 66 63 65 69 69 70 72 72 74 76 78 80 83
73 73 79 86 82 64 46 46 51 49 57 74 69 51 48 53 52 54 57 55 53 64 82 93 89 72 56 53 57 56 53 53 53 51 51 55 65 73 76 75 70 67 68 67 61 59 60 62 64 67 72 75 71 66 63 63 63 60 59 59 59 60 60 59 59 57 58 58 54 61 76 78 69 66 66 69 72 72 73 75 75 77 79 81 84 86
88 77 78 84 78 67 57 50 52 57 64 67 54 41 45 50 53 62 63 54 52 62 73 76 68 58 56 58 59 59 55 52 51 48 49 58 71 78 76 69 63 64 65 61 57 56 56 59 65 71 76 73 67 65 64 64 63 61 61 62 62 60 59 59 59 59 59 57 58 71 82 75 66 67 68 70 73 74 75 76 78 80 82 84 87 87
84 79 77 80 80 78 67 61 70 71 58 50 43 39 44 46 48 57 55 48 56 65 64 65 63 59 58 56 53 54 52 49 49 46 48 60 66 68 68 61 57 62 63 57 55 54 57 66 71 74 77 74 67 65 66 64 63 63 65 66 62 59 60 61 60 60 59 60 68 80 79 70 67 69 70 74 76 76 78 80 82 83 86 88 89 90
68 77 74 72 80 75 62 72 87 70 44 41 46 43 45 48 51 59 61 56 59 64 64 67 65 58 56 54 52 52 49 49 48 42 46 59 58 55 60 59 57 62 61 54 54 59 66 72 70 67 69 70 66 65 66 65 64 67 67 64 61 60 61 62 61 61 64 70 77 80 73 68 70 73 75 78 79 81 83 85 87 88 90 92 93 93
66 77 68 64 74 72 67 77 75 58 50 53 51 45 47 51 52 59 67 64 59 62 64 64 64 60 57 56 54 50 48 51 51 45 47 56 55 51 55 56 56 59 56 54 61 69 71 67 61 56 55 60 67 70 67 63 64 68 66 62 62 63 62 62 63 66 74 80 79 75 72 73 76 78 80 82 84 88 89 90 93 94 95 96 97 97
61 69 67 68 76 74 72 78 74 67 68 64 53 43 41 45 43 46 60 65 62 62 60 59 64 63 59 60 57 50 53 64 66 56 52 55 54 51 53 53 53 53 54 61 71 73 65 56 54 54 57 66 73 70 64 63 65 67 65 63 65 65 63 65 69 75 82 82 76 74 74 76 79 81 84 88 92 94 96 97 99 99 99 100 100 100
65 76 78 75 78 75 73 82 88 81 72 62 52 41 38 44 40 39 56 66 63 61 58 59 64 63 62 65 61 56 69 84 80 63 53 55 54 51 51 50 49 52 55 63 73 71 60 53 56 62 68 73 72 66 66 68 68 67 67 66 67 67 68 73 78 80 80 78 76 78 78 78 83 86 89 95 97 99 101 102 101 100 101 100 100 101
83 90 82 72 73 74 77 85 88 82 71 57 44 40 43 39 35 54 81 80 65 59 59 60 64 62 62 66 65 66 78 88 83 65 52 53 53 49 48 46 48 54 55 58 70 73 62 59 65 70 71 69 68 70 73 71 69 70 71 69 71 75 78 81 81 79 78 80 82 82 81 83 87 91 94 98 100 102 103 103 101 101 101 100 100 101
91 90 82 76 73 74 81 85 81 78 71 55 42 41 42 38 50 83 99 80 61 60 60 60 62 62 63 65 65 65 67 67 65 58 52 53 52 49 49 48 50 54 53 57 70 72 65 67 72 72 70 70 73 75 73 71 72 74 74 76 80 82 82 81 80 80 82 85 85 83 85 88 91 93 97 99 101 103 103 101 101 102 101 102 102 101
80 78 79 79 73 70 72 74 77 77 63 46 41 38 41 61 85 92 77 59 57 62 61 58 59 60 61 60 59 60 60 57 55 55 56 55 51 50 52 51 51 52 51 57 65 65 66 73 73 70 72 75 75 74 71 70 73 76 79 83 84 82 81 81 83 87 89 88 87 88 90 91 93 95 96 98 100 103 102 100 101 101 101 102 101 101
62 65 76 77 67 62 67 74 86 84 57 39 43 46 50 71 81 67 56 57 60 60 59 58 60 62 60 58 57 58 59 58 58 58 57 53 51 53 51 47 48 51 51 56 61 62 67 75 73 71 75 76 74 72 69 69 75 81 83 82 80 80 83 87 90 93 94 92 91 93 93 92 94 95 96 98 100 100 100 100 100 100 100 101 101 101
60 58 71 78 67 66 79 85 78 66 49 39 44 51 53 57 56 54 61 66 62 58 59 62 65 63 57 56 59 60 61 62 63 60 57 56 57 53 43 39 47 54 55 58 61 65 69 73 74 75 76 76 74 71 68 70 78 86 85 79 79 83 87 92 96 96 96 96 94 94 94 93 93 94 96 98 99 99 100 100 99 100 100 100 101 101
64 53 57 68 67 62 67 64 49 42 43 42 41 46 50 51 52 57 62 64 63 60 60 66 68 60 52 54 59 62 64 65 63 60 59 59 57 47 41 46 53 58 58 57 63 72 74 72 75 77 77 77 74 69 70 73 77 82 82 80 83 89 93 97 99 98 98 97 95 94 93 92 93 95 97 97 97 99 100 100 100 101 100 100 100 100
61 48 45 52 58 56 48 41 39 43 46 43 41 47 53 53 56 59 62 64 64 59 61 67 64 54 52 56 60 64 66 64 60 60 59 59 54 47 49 57 59 58 58 57 63 76 78 73 76 80 80 79 73 70 75 78 75 78 81 82 87 93 96 99 100 100 99 97 94 93 92 93 96 96 96 96 96 99 100 100 101 101 99 100 101 100
58 43 42 43 51 60 56 45 43 46 44 44 47 51 54 58 60 63 65 66 61 58 63 66 59 53 54 56 59 65 66 60 58 61 60 58 56 55 59 63 59 57 59 60 64 74 77 75 78 84 85 81 74 74 81 79 75 77 81 85 92 96 96 98 100 101 98 95 93 93 93 96 99 97 96 96 96 97 98 97 99 101 101 101 101 100
55 44 48 47 48 56 54 45 44 47 46 48 53 55 59 65 66 63 63 63 58 59 65 64 56 54 56 57 59 65 64 58 59 64 64 61 61 63 64 65 62 61 66 70 69 72 77 78 81 88 90 83 78 83 84 78 75 79 83 89 96 97 95 99 101 100 97 93 93 95 96 98 99 98 97 97 96 98 98 96 97 101 102 102 102 100
50 46 49 50 52 57 54 47 50 56 55 51 53 58 63 67 68 64 63 60 57 60 66 62 54 54 58 58 59 64 65 60 59 67 70 68 68 67 65 66 68 67 71 74 72 74 79 81 84 91 91 83 82 86 82 75 76 82 89 95 97 95 96 101 102 99 96 94 96 97 98 98 97 97 98 98 97 96 94 93 99 103 101 98 100 101
49 50 53 59 69 70 61 54 58 67 68 60 56 61 66 67 66 66 65 61 57 61 66 61 56 57 60 59 60 64 64 59 60 69 75 74 72 68 65 69 70 68 69 73 74 78 82 83 88 95 89 80 81 82 78 77 82 88 95 97 95 94 99 103 102 99 97 97 98 99 99 99 98 98 99 99 99 97 91 86 90 96 98 99 98 98
44 46 49 58 67 63 53 52 59 66 68 62 58 63 67 66 66 69 67 60 58 63 64 62 62 64 62 61 63 63 62 60 64 72 77 76 74 69 68 73 73 69 72 74 76 82 86 85 92 96 86 79 82 82 79 83 89 94 98 96 92 97 102 102 102 102 99 99 101 101 101 100 99 99 100 99 99 100 97 91 85 81 86 95 98 98
Wind_Speed
4 5 3 1 4 5 4 5 4 2 3 3 4 4 6 7 7 8 9 6 1 2 7 7 9 12 12 15 12 6 9 12 11 8 7 8 7 7 8 6 6 7 6 9 10 9 8 9 11 14 16 17 18 20 22 25 28 28 28 24 21 24 24 23 26 27 26 25 25 26 27 28 28 28 28 27 26 25 26 27 28 30 31 31 30 29
5 5 1 5 7 6 3 3 3 2 2 1 3 4 5 5 8 9 8 6 0 1 6 4 7 14 13 14 11 3 8 11 11 10 9 10 8 7 8 7 7 6 5 6 6 5 7 9 12 15 16 18 19 21 24 25 27 29 26 20 21 25 25 26 27 27 27 26 27 28 29 30 30 30 29 27 26 26 27 28 29 29 28 27 28 28
5 1 6 7 4 3 2 3 3 0 1 1 2 2 5 4 6 9 7 4 1 0 8 7 9 14 13 11 7 3 5 6 7 9 9 11 10 8 7 7 6 5 4 4 3 4 7 9 13 15 16 18 19 21 24 25 27 27 22 19 23 26 27 28 28 28 28 28 29 30 30 31 32 31 30 28 28 28 29 29 27 25 24 26 28 28
3 3 6 3 2 3 1 3 4 3 1 2 2 3 6 5 3 6 5 2 1 3 9 11 10 10 9 5 4 5 2 2 5 8 7 7 10 9 8 7 6 5 4 2 1 4 7 10 12 14 16 19 20 22 23 25 25 22 19 21 25 27 27 29 29 29 30 30 31 31 31 32 32 31 29 28 28 28 29 28 26 24 25 25 26 27
3 5 3 3 4 2 2 4 4 3 4 3 4 5 7 7 4 7 8 7 6 4 4 7 9 7 4 3 3 5 4 5 6 8 8 6 7 8 7 6 5 4 3 3 3 5 8 10 12 14 15 19 20 21 22 23 20 19 21 24 26 27 28 29 29 30 31 31 32 31 31 30 28 27 26 26 26 26 27 26 25 25 24 24 24 27
4 4 1 2 5 4 2 4 1 1 4 5 5 7 8 8 7 9 10 10 9 5 0 4 6 6 3 2 2 2 5 5 5 8 9 7 7 7 7 5 4 3 3 3 5 6 9 10 11 12 14 17 19 19 20 19 18 20 24 25 27 28 28 29 29 30 32 32 31 30 29 27 25 23 22 23 25 27 28 27 25 24 24 24 26 28
2 3 3 2 3 6 5 3 2 2 4 5 5 5 5 6 7 10 10 6 5 7 2 4 1 6 5 3 2 0 4 5 5 6 7 6 6 6 5 5 3 3 3 4 5 7 9 9 9 11 13 17 18 17 18 18 19 22 23 23 25 26 27 29 30 31 31 30 30 29 28 26 24 23 24 27 29 30 30 28 26 26 26 28 29 31
2 4 5 4 5 5 4 3 3 4 3 5 5 2 4 8 9 11 9 4 5 6 4 2 3 5 5 4 3 2 6 5 4 6 6 5 6 6 5 4 4 4 4 5 5 6 9 10 9 11 14 16 15 14 17 19 20 20 20 21 24 25 27 29 29 30 29 29 29 29 29 28 27 27 30 32 32 31 30 29 29 28 29 30 31 33
2 2 3 2 4 3 3 2 3 5 1 7 5 2 6 9 11 10 7 6 4 4 6 3 2 3 6 3 2 2 5 3 3 5 5 5 6 5 4 3 4 4 4 4 4 6 8 9 10 11 14 14 12 13 17 19 18 18 19 21 24 26 27 28 29 30 30 31 32 32 32 31 31 31 32 32 32 32 30 28 29 29 31 32 33 35
2 2 3 2 0 4 5 4 4 6 5 7 5 6 7 7 8 6 4 5 3 1 6 7 2 2 7 3 1 2 2 3 4 5 4 5 5 4 4 3 4 4 4 4 5 6 7 9 10 11 12 11 10 13 16 17 17 18 20 22 25 27 28 29 30 31 32 33 34 33 33 33 32 31 31 32 32 31 28 27 29 30 32 33 34 38
4 2 3 2 2 4 3 4 4 6 6 5 6 6 7 6 3 1 1 2 2 2 6 7 2 2 5 4 2 0 2 4 6 5 4 4 4 3 3 4 4 4 4 3 3 5 8 10 10 10 10 10 11 14 15 16 17 19 21 24 26 27 29 29 30 31 32 33 33 32 33 31 30 29 30 32 32 31 30 29 29 30 32 33 37 42
7 3 1 2 2 2 3 4 2 1 1 4 5 5 7 7 3 4 4 4 2 6 5 5 2 2 4 4 2 2 3 5 7 6 5 4 4 3 3 4 4 4 3 3 3 5 9 10 9 9 10 10 12 14 16 18 20 21 22 24 25 27 28 29 30 31 32 32 32 32 31 29 29 29 32 34 35 34 31 29 29 29 32 35 38 39
5 2 2 4 2 2 3 5 5 4 4 5 4 5 6 6 5 5 6 3 3 8 4 3 1 1 6 3 4 5 5 7 6 5 5 4 3 3 4 4 4 3 3 4 4 5 8 9 9 9 10 11 13 15 18 19 20 21 22 23 25 26 28 30 31 32 32 32 33 32 31 31 32 33 34 34 32 29 28 28 28 30 33 35 34 30
6 5 4 4 2 1 3 3 6 4 4 6 3 3 3 3 4 6 6 4 6 10 5 4 1 4 5 3 4 6 5 5 5 5 5 4 4 3 3 3 3 3 4 5 5 6 7 9 10 10 11 12 14 16 18 20 21 22 23 24 25 27 29 30 31 32 31 32 34 34 34 34 33 32 31 30 28 26 25 26 29 32 34 32 27 23
4 5 3 2 2 2 3 1 3 3 4 4 2 3 1 1 2 5 4 5 9 13 9 1 1 4 4 3 2 6 5 4 5 5 5 6 4 3 2 2 4 4 5 5 7 7 9 11 11 10 12 12 14 16 18 20 21 21 22 24 26 28 30 31 31 31 32 34 36 35 34 32 31 31 31 32 32 29 27 28 32 35 32 26 22 23
1 5 5 3 1 1 3 2 1 2 4 3 2 2 2 3 3 3 6 6 7 10 9 2 2 4 1 2 1 4 3 4 6 5 5 5 2 2 2 3 5 6 6 7 7 8 10 12 11 11 13 14 16 18 19 20 20 21 23 25 27 29 30 31 31 32 34 36 35 34 33 33 33 33 34 34 33 29 29 32 34 32 27 23 23 28
2 6 7 6 4 0 1 3 0 2 2 2 2 3 4 4 5 2 7 4 3 7 7 3 4 3 1 1 3 3 3 4 5 5 5 3 2 4 4 4 6 7 8 8 8 9 10 12 12 12 14 16 18 19 20 21 21 22 24 26 28 29 30 31 32 33 34 34 33 34 35 35 35 36 36 35 32 30 31 33 31 27 23 23 27 30
1 7 7 4 4 4 2 2 2 1 1 0 2 5 4 1 4 2 3 5 5 8 7 5 8 7 3 3 3 2 3 4 3 3 3 3 2 5 6 6 7 8 8 8 8 9 11 13 12 13 15 18 19 19 20 21 22 23 25 27 28 29 31 32 33 34 33 32 34 36 36 35 36 36 35 32 30 30 30 30 27 24 24 28 30 28
1 5 7 1 3 7 2 2 3 3 1 2 3 3 2 2 4 2 2 5 7 9 8 10 12 7 4 4 2 1 6 6 6 6 5 6 6 7 8 8 9 10 9 9 8 8 9 12 12 13 16 19 20 21 21 20 21 23 25 27 28 29 31 33 33 32 32 34 36 36 36 35 35 34 31 28 28 28 27 25 24 26 28 28 26 23
1 1 6 3 2 6 5 4 4 6 4 2 3 3 2 2 4 3 2 2 4 8 9 12 12 4 2 3 3 3 5 6 8 9 8 10 10 9 9 10 11 12 11 11 10 9 9 10 11 14 17 19 21 22 21 20 21 23 25 27 28 30 32 32 31 31 33 36 36 36 36 34 32 29 28 27 27 26 26 25 25 27 25 23 22 24
1 1 4 6 4 4 4 2 2 4 4 3 3 4 4 2 2 3 2 1 1 7 8 10 11 4 1 0 4 3 2 2 5 7 6 9 10 10 11 12 12 12 12 11 10 10 10 9 11 16 19 21 21 20 20 20 23 24 25 26 28 30 30 30 30 32 34 36 36 36 34 31 29 28 27 27 27 26 25 24 23 23 22 23 26 27
1 1 3 7 6 5 6 4 1 2 2 1 2 2 3 3 3 5 6 1 1 3 5 9 13 7 0 3 5 3 1 1 3 6 7 9 10 12 13 12 13 12 11 11 10 9 7 7 13 19 21 22 21 19 19 21 23 25 26 27 27 28 28 29 31 33 35 36 35 33 30 28 27 27 27 27 26 24 22 22 22 22 23 25 27 26
1 1 2 6 6 8 11 4 2 1 3 3 2 2 1 1 1 3 8 6 3 3 5 8 11 7 1 4 5 5 4 2 2 5 9 11 13 14 14 14 14 13 12 12 10 7 6 11 17 20 21 22 21 20 20 21 23 25 26 26 26 27 28 30 32 35 36 35 32 30 28 27 27 26 26 25 23 23 22 23 23 23 24 24 24 22
0 2 2 6 6 7 8 2 3 1 2 2 3 2 0 2 2 4 6 6 4 4 4 7 10 7 1 5 4 3 3 4 7 10 14 15 14 14 15 16 15 14 14 11 7 6 11 16 18 18 20 20 20 20 20 21 23 24 24 24 25 27 29 30 33 35 34 32 30 28 27 26 26 25 25 24 23 23 23 23 23 22 22 22 21 20
2 1 2 6 7 7 7 5 3 3 2 2 4 2 1 3 5 3 3 3 2 4 4 7 11 7 2 3 6 9 12 13 15 16 17 16 14 13 15 15 15 15 14 10 7 9 12 14 15 17 19 19 20 21 19 20 22 22 21 23 25 27 30 32 32 33 31 29 28 27 26 26 25 24 24 24 24 24 23 23 22 21 21 21 21 21
2 1 1 1 4 7 8 8 8 8 6 4 6 7 5 3 4 5 5 4 5 7 6 6 10 10 11 15 15 14 16 18 20 19 17 15 14 14 15 15 15 15 11 8 9 11 10 11 14 17 18 20 21 20 19 21 21 19 19 22 25 28 31 32 31 30 29 28 27 26 25 25 24 23 24 24 24 23 23 23 22 22 22 21 22 22
1 1 2 5 5 6 8 10 11 10 9 10 14 15 13 6 1 1 3 4 7 10 9 8 11 17 20 18 13 13 16 18 17 17 16 15 15 16 16 16 16 13 9 9 12 11 10 12 14 16 19 21 21 21 21 21 18 17 20 24 26 28 31 32 30 28 27 26 26 25 24 24 23 23 23 23 24 24 24 24 23 23 23 22 22 22
3 2 4 5 8 10 11 13 14 11 10 14 16 15 14 12 6 4 4 7 8 8 10 13 17 22 21 14 11 14 17 17 17 17 18 17 16 16 17 17 16 14 11 12 13 13 13 13 12 15 20 21 21 22 21 18 16 18 22 25 26 29 31 31 27 25 26 26 25 25 24 23 23 23 23 24 24 24 25 25 25 24 24 22 21 21
4 3 4 3 7 11 11 13 14 11 9 11 12 12 12 12 9 6 6 8 6 7 12 18 23 23 16 12 15 18 18 18 19 19 18 17 18 19 20 17 15 15 14 14 15 15 15 12 12 16 19 20 22 21 17 15 17 21 23 24 27 30 31 28 24 24 25 26 25 24 23 23 23 23 23 24 26 27 28 27 26 24 23 22 21 22
3 3 3 1 7 11 11 13 12 10 9 9 10 10 8 8 8 7 7 8 8 11 16 21 24 19 11 12 18 19 17 17 18 18 19 20 22 22 20 16 15 16 15 15 18 17 14 12 14 17 19 21 20 16 15 17 19 22 23 24 28 30 28 25 23 23 25 26 24 23 23 23 22 23 25 28 30 30 28 26 25 24 23 22 23 24
1 3 2 2 5 11 11 10 8 8 10 9 8 8 7 8 8 7 6 9 12 15 19 20 18 13 8 12 18 18 17 19 20 20 21 21 22 21 17 16 18 18 17 18 20 18 15 14 16 18 20 20 16 14 16 19 20 22 24 26 29 29 26 23 23 24 26 24 23 24 23 22 23 27 31 31 29 27 25 24 24 24 24 24 24 24
2 2 3 5 5 9 8 9 13 15 10 5 6 9 10 9 9 8 8 10 14 18 20 16 10 9 11 15 18 19 20 22 22 22 21 21 21 20 18 19 19 18 19 20 20 19 17 16 16 18 19 16 14 17 19 20 22 24 26 28 29 27 24 22 23 26 25 23 23 24 22 21 25 30 32 29 26 25 25 25 25 24 24 25 25 25
2 1 4 3 4 9 9 11 14 13 8 4 4 8 11 11 11 10 10 14 15 13 12 9 7 12 17 18 20 22 23 22 21 20 20 18 17 18 19 20 20 19 19 20 20 20 19 18 19 20 17 14 17 20 20 21 23 26 28 29 28 24 23 23 25 25 23 23 25 23 19 22 28 30 30 27 24 24 25 25 25 25 25 25 25 24
3 2 2 0 1 9 13 13 10 7 8 3 2 3 8 10 13 14 16 19 14 8 7 10 12 17 20 19 20 22 22 21 21 20 18 14 13 16 20 20 20 21 21 20 20 20 20 21 22 19 15 17 21 22 21 23 25 28 29 27 24 23 24 25 24 24 24 25 25 21 20 26 30 29 28 26 24 25 25 25 26 26 25 25 25 24
2 3 2 1 1 6 8 9 8 8 5 2 4 4 8 9 12 18 21 16 9 9 12 14 16 19 20 19 19 20 21 21 21 20 15 13 15 18 19 20 21 21 21 20 21 22 22 22 21 21 19 20 23 24 24 26 29 30 29 24 22 24 25 24 23 24 25 25 23 22 25 30 31 28 27 26 25 26 25 25 26 26 25 25 24 24
0 1 1 1 1 4 6 7 6 9 5 2 2 8 12 10 11 16 18 9 4 7 15 16 18 20 20 20 20 19 21 21 19 15 12 15 18 18 18 18 19 19 20 22 24 22 22 23 24 25 24 23 24 25 25 28 31 30 26 23 24 25 24 23 23 24 25 24 24 26 29 31 30 28 26 26 26 26 26 26 26 25 25 25 24 24
2 1 1 2 1 2 7 7 7 10 7 3 5 9 10 10 11 12 14 7 3 9 16 17 20 21 20 22 22 21 21 20 15 12 12 16 19 20 19 19 20 21 24 27 26 22 24 26 26 28 28 26 24 25 27 31 32 28 25 24 25 25 23 23 23 23 24 25 27 29 30 30 28 26 26 27 27 27 26 26 26 26 25 25 24 24
2 1 1 2 2 2 4 7 8 10 7 2 4 9 8 12 16 14 11 6 4 12 18 19 21 22 21 21 23 22 20 16 14 12 14 17 18 20 21 21 25 29 28 26 24 23 26 29 28 29 29 26 25 28 31 32 29 25 24 24 24 24 23 23 23 24 25 27 29 30 30 28 26 26 27 28 27 28 28 27 26 26 26 24 24 25
5 2 4 2 2 2 3 5 5 8 5 2 9 12 10 12 16 14 10 6 7 15 19 19 20 22 21 21 22 19 15 13 14 14 15 18 19 20 20 22 28 31 28 26 24 22 26 31 29 28 27 26 28 31 32 30 26 23 23 24 25 24 23 23 24 26 28 30 30 30 28 26 26 27 29 29 29 29 29 27 27 27 26 25 24 25
5 4 4 3 3 3 3 3 3 4 4 5 13 14 12 13 12 9 10 10 12 17 17 18 20 21 20 20 18 15 12 12 14 15 17 20 22 23 24 26 28 29 28 28 25 23 28 31 27 26 27 29 31 32 30 27 24 22 23 24 24 23 22 24 27 30 31 31 30 28 26 26 29 30 30 29 30 30 29 28 27 27 26 26 24 24
3 2 2 2 4 4 3 4 4 4 3 6 12 12 14 15 10 6 6 10 15 19 17 16 20 20 19 18 15 12 13 13 14 16 19 20 21 23 27 31 30 28 28 28 25 27 30 27 25 26 28 30 31 30 28 25 23 22 24 24 22 23 25 28 31 33 33 31 28 27 28 30 32 31 30 30 30 30 29 28 27 27 26 26 26 26
3 3 2 2 3 4 4 4 6 4 1 6 12 11 13 13 7 4 8 11 16 19 18 18 20 19 19 18 15 13 15 16 16 17 17 18 20 22 27 32 31 29 30 28 27 30 29 24 25 29 30 30 30 28 26 25 23 23 23 22 23 26 29 32 34 34 33 30 28 29 31 33 33 32 31 31 29 29 29 29 28 27 26 26 26 25
1 2 3 3 2 4 5 4 5 4 2 12 17 12 10 7 6 8 12 13 14 17 18 18 17 16 17 17 15 15 17 17 17 18 18 19 21 24 29 32 31 29 30 28 28 30 27 24 25 29 29 30 30 27 25 25 23 22 23 24 27 30 32 34 35 34 33 30 29 31 33 33 34 32 31 30 29 29 29 29 28 27 25 24 23 22
1 1 2 3 2 3 4 2 3 5 5 12 13 8 5 6 7 9 11 12 13 14 15 14 13 15 16 15 15 16 16 16 18 19 20 21 21 24 30 32 30 29 29 27 28 28 27 26 26 28 29 30 29 27 26 25 23 23 25 28 31 33 34 35 35 34 33 31 31 33 34 34 34 32 30 29 29 29 29 29 28 27 25 22 21 20
3 3 2 3 2 2 4 7 7 5 6 9 8 5 5 8 8 8 9 11 13 13 12 11 12 14 15 15 15 15 14 16 19 19 20 20 19 23 28 28 28 28 28 27 27 26 27 27 27 28 30 29 29 27 24 24 25 27 28 31 33 34 35 36 35 34 32 32 33 34 34 35 33 30 29 29 29 28 28 28 27 25 24 23 21 19
4 2 3 2 4 4 6 9 8 4 6 8 5 1 4 7 8 7 8 9 12 13 11 10 11 13 14 14 15 15 15 18 20 20 19 18 19 24 27 26 26 28 27 26 26 26 27 28 27 28 29 29 29 26 23 26 30 29 30 33 34 33 34 36 35 33 31 33 34 34 34 34 31 30 30 30 29 27 26 25 24 23 25 25 22 20
3 2 2 2 3 4 5 8 6 7 10 11 6 2 5 7 6 6 7 9 11 11 10 11 13 15 15 14 14 15 17 19 19 18 16 14 17 23 25 24 27 28 26 25 27 27 28 28 28 28 28 28 28 24 23 28 32 30 31 34 32 32 35 35 33 31 32 33 34 34 33 31 29 29 31 32 31 30 28 26 23 22 23 23 21 20
2 1 2 3 3 5 8 9 6 7 9 8 5 5 6 7 7 8 9 11 12 11 10 13 16 15 14 14 15 15 17 19 19 16 14 14 18 22 23 24 28 27 24 24 27 28 28 28 29 29 28 27 26 25 25 29 31 31 32 32 31 33 36 35 31 31 32 33 34 33 31 28 27 29 32 32 32 30 28 27 26 24 23 21 19 20
1 0 2 4 6 7 7 6 7 8 7 5 5 8 7 6 9 11 11 12 13 12 11 15 17 16 15 16 18 17 16 17 19 17 14 16 20 22 24 26 27 26 24 25 27 27 28 29 30 30 28 25 25 28 31 32 33 33 32 30 31 35 36 34 32 31 32 33 33 31 29 28 28 29 31 32 32 32 29 26 24 23 23 22 20 20
1 2 2 3 5 7 6 4 6 8 7 6 8 10 8 8 10 11 10 11 12 11 12 14 16 18 18 19 20 19 15 16 20 20 17 17 21 23 25 27 26 25 25 26 27 27 28 30 30 29 28 26 26 31 34 33 34 33 30 30 33 36 36 34 32 30 32 32 31 29 28 28 29 30 30 29 30 32 33 31 26 20 18 21 23 22
1 2 1 2 5 8 8 5 4 4 7 9 10 8 7 10 11 10 9 10 11 13 15 14 13 15 17 19 21 20 17 18 22 22 20 20 22 24 26 26 26 26 26 27 27 27 30 32 30 28 28 27 27 32 34 34 33 31 29 31 35 36 36 35 31 29 31 31 29 28 26 27 29 29 29 28 28 28 29 31 31 27 21 20 23 23
Wind_Direction
63 54 45 194 241 260 255 200 198 214 186 237 262 235 256 269 274 267 265 265 171 275 259 228 253 271 276 281 282 250 196 204 206 173 166 172 160 161 162 157 137 127 143 127 108 98 79 60 45 37 34 27 19 13 7 2 358 351 342 334 340 352 349 341 338 336 334 335 338 338 334 331 327 322 317 313 311 308 306 305 304 302 301 301 303 304
63 66 312 235 223 229 256 197 194 219 171 225 246 255 278 261 265 265 262 275 201 250 263 230 274 281 279 283 292 263 194 206 201 178 171 166 155 163 157 140 136 134 138 132 120 103 71 49 39 35 32 23 16 10 3 358 353 347 344 345 350 353 351 347 344 341 340 337 334 331 326 324 319 315 311 306 304 303 301 300 299 298 297 297 300 303
31 41 262 258 210 167 46 71 107 185 193 218 233 278 296 279 283 276 259 267 120 254 286 302 301 285 282 285 306 312 221 213 187 170 162 157 152 154 146 135 137 133 139 158 134 77 50 37 34 32 27 21 13 6 359 355 349 346 351 356 353 351 349 347 344 340 337 332 328 324 320 319 314 308 305 300 300 300 298 297 294 291 290 293 296 298
5 274 258 266 135 152 11 27 49 16 333 238 248 291 288 294 320 289 280 284 219 246 281 302 302 283 290 306 340 340 295 101 116 134 130 141 146 141 137 133 132 130 138 142 81 39 30 28 28 27 22 15 7 0 356 351 348 352 1 358 351 349 345 343 341 337 332 327 323 319 315 314 309 302 298 297 297 297 295 292 289 287 290 293 293 294
266 252 235 56 60 134 257 337 30 16 334 285 243 245 266 285 273 262 296 317 300 271 265 311 309 283 308 341 327 345 25 63 90 108 98 94 113 118 117 116 116 120 116 73 38 18 19 19 21 23 17 9 1 354 352 349 352 2 1 352 346 344 341 339 336 332 329 325 321 318 315 312 306 299 296 296 297 297 296 292 289 291 293 295 295 297
277 261 232 33 24 54 39 325 7 92 330 312 261 230 240 278 284 276 305 326 318 302 64 22 335 289 313 341 266 333 37 64 82 99 105 99 103 109 107 109 105 91 87 58 37 21 12 10 17 19 9 2 354 349 353 356 359 360 351 345 343 340 338 335 333 331 329 326 322 318 314 310 305 300 299 301 302 302 300 294 292 294 294 296 298 299
288 337 50 75 21 32 36 334 266 129 26 315 257 205 227 274 290 288 303 323 304 291 298 73 311 269 299 320 259 32 78 90 84 94 110 108 106 107 105 112 104 75 65 44 32 19 6 5 12 10 1 355 349 351 359 358 353 348 344 342 341 338 335 333 332 332 330 325 321 317 313 309 306 304 305 305 304 301 297 292 292 292 294 297 298 299
266 339 17 49 36 20 3 328 247 140 72 283 239 143 300 296 288 286 293 271 263 298 320 109 174 260 286 287 287 86 110 111 93 97 111 112 107 109 110 108 91 71 57 43 27 12 6 4 4 358 351 347 347 355 356 348 342 340 341 341 338 336 334 333 332 331 329 326 323 320 317 312 308 306 304 303 301 296 291 288 289 292 295 297 298 299
254 327 327 4 19 341 272 262 181 141 172 266 256 280 286 282 278 278 279 267 278 342 314 296 135 262 275 273 333 76 119 147 147 133 138 133 118 112 113 97 78 64 53 46 23 6 3 356 349 343 341 340 347 351 344 338 335 336 340 339 337 336 334 333 333 332 330 328 325 321 316 310 306 304 302 301 298 292 287 286 288 293 297 298 299 299
256 234 224 148 227 253 253 246 172 156 236 277 302 297 275 263 267 274 271 280 333 33 280 284 144 225 285 293 67 77 133 194 180 158 156 138 121 119 111 82 68 57 42 34 16 1 348 338 332 331 331 333 337 337 332 329 331 335 340 340 337 336 334 333 333 331 328 325 321 316 311 306 303 303 303 302 297 292 289 289 291 295 298 299 301 301
298 301 194 143 201 218 272 276 195 181 243 315 353 326 304 287 284 4 330 352 2 263 256 267 206 145 295 292 129 286 251 184 155 142 144 126 121 131 99 69 62 50 29 11 348 336 327 321 317 320 322 321 322 323 323 327 333 339 341 339 336 334 333 331 329 326 323 320 317 312 307 302 300 304 306 304 299 294 292 291 293 296 298 300 302 302
330 11 185 275 253 156 14 324 268 214 322 13 9 343 329 316 351 17 355 39 8 278 259 252 249 132 263 286 71 22 3 102 119 131 142 140 151 148 90 67 60 42 8 335 319 319 317 309 305 309 310 309 313 318 325 331 336 339 339 337 333 330 328 326 324 323 321 319 316 312 308 303 303 306 306 302 297 292 291 292 294 297 299 301 301 299
325 321 276 312 318 97 22 337 325 353 29 18 1 14 2 337 353 346 326 350 283 280 268 195 341 287 256 298 80 87 61 82 106 126 135 139 146 111 68 52 39 20 339 320 312 307 304 296 292 297 301 307 314 319 326 333 336 336 335 333 328 325 325 324 322 322 320 320 318 314 310 308 306 306 304 299 294 291 292 295 296 298 299 299 297 295
328 310 320 345 348 52 46 351 324 329 350 346 356 52 18 348 338 314 304 310 287 291 286 140 68 297 282 335 98 120 106 113 116 112 116 99 75 64 58 39 3 334 318 311 295 290 291 281 275 284 298 306 311 318 326 332 334 331 329 328 325 323 323 323 323 322 321 320 318 315 311 308 306 305 304 300 296 292 292 295 297 298 297 294 291 291
329 310 320 353 332 356 13 284 263 285 312 310 179 137 15 204 264 284 271 286 297 298 301 35 59 264 279 330 138 144 139 121 101 98 93 69 47 32 36 5 332 313 302 293 280 281 282 271 266 280 295 301 306 317 324 326 326 324 323 324 323 322 323 323 323 322 321 320 317 314 311 309 307 306 306 302 297 291 291 297 299 296 291 287 288 293
279 266 267 291 287 18 347 271 170 5 318 283 154 79 343 186 190 260 251 251 281 292 292 300 235 222 205 341 208 150 128 92 90 84 62 48 18 337 328 317 308 291 283 282 282 289 284 270 270 287 299 306 312 316 318 318 319 320 321 322 321 321 322 323 322 321 320 319 316 314 312 310 309 307 305 302 296 291 295 298 296 292 288 287 293 297
320 274 280 316 330 13 234 246 110 36 310 307 4 304 263 178 150 256 279 286 330 300 288 294 294 293 60 283 223 164 102 77 81 55 17 358 338 316 293 278 278 272 277 283 280 286 277 263 270 292 304 309 311 311 312 314 318 320 320 321 321 321 322 323 322 321 320 319 317 315 313 310 309 307 304 301 297 295 297 295 291 290 292 295 298 296
256 281 293 320 311 280 210 219 303 27 124 69 305 283 270 138 104 122 285 316 325 293 285 298 301 301 314 282 218 159 35 30 50 42 337 283 278 290 277 267 268 269 279 281 274 277 267 254 267 293 304 307 306 305 308 312 315 318 319 320 321 321 322 323 322 321 320 319 318 315 312 311 309 307 303 300 298 297 296 293 292 295 298 298 297 293
182 288 303 316 257 289 323 50 337 331 37 186 250 291 33 330 316 3 325 305 302 293 290 298 299 289 273 270 195 29 359 356 348 355 341 317 313 304 297 295 293 298 304 300 296 294 271 254 268 295 304 306 307 307 309 310 313 317 319 320 321 320 321 322 322 321 320 320 318 314 312 311 309 306 303 302 300 298 296 295 298 300 299 298 297 295
138 272 295 291 270 303 340 25 341 319 327 342 315 336 52 205 256 275 293 291 296 296 298 303 305 290 234 252 130 57 356 349 339 341 340 327 321 313 310 310 311 313 314 309 306 304 286 265 278 303 308 308 310 310 310 311 314 318 319 320 321 321 322 323 322 323 321 320 318 315 313 311 309 307 305 304 303 302 300 298 297 297 297 300 303 304
2 172 268 288 314 343 340 327 312 303 311 342 339 317 314 294 269 278 278 149 295 297 303 309 304 289 200 164 115 96 355 339 326 315 309 311 311 310 309 311 313 312 309 306 303 301 294 282 299 314 315 315 314 311 311 314 317 320 320 320 322 323 324 324 324 324 322 320 318 315 312 311 310 309 307 306 305 302 301 301 299 299 301 304 304 302
331 194 258 296 327 333 294 271 247 230 218 220 236 249 267 278 323 321 307 305 141 277 288 295 296 297 79 125 127 131 176 218 288 285 298 311 310 311 314 314 315 313 308 305 302 301 297 303 315 318 319 321 319 315 315 317 320 321 320 322 324 325 325 325 326 325 322 320 317 314 313 312 312 311 310 308 307 305 306 307 306 304 302 300 297 295
189 119 268 278 270 268 275 289 65 137 158 152 206 215 206 249 5 305 292 301 303 279 280 277 285 300 47 134 141 144 154 161 300 303 315 321 318 320 324 322 320 317 314 311 309 315 322 319 319 319 321 322 319 318 317 318 320 320 321 324 326 326 327 327 327 325 322 319 316 315 315 314 313 312 311 310 310 311 310 307 305 301 297 294 292 292
64 66 326 290 265 258 271 326 67 50 70 59 292 285 184 293 294 216 247 302 309 276 295 291 287 303 96 160 172 116 63 1 345 336 330 327 327 329 329 326 325 322 318 320 328 339 327 319 320 322 321 320 319 318 317 318 320 321 323 328 329 328 328 328 327 325 322 319 317 316 316 316 315 313 313 314 313 312 310 306 303 301 299 297 297 298
320 358 356 333 328 321 323 350 350 308 1 344 283 276 196 299 319 284 265 328 305 263 295 298 292 308 10 285 313 359 3 347 340 336 332 329 328 330 329 326 324 321 321 332 339 325 318 318 321 321 319 318 317 316 318 320 321 323 329 332 331 330 329 328 327 324 321 319 318 318 318 318 317 316 316 316 313 311 310 309 308 307 306 304 304 303
285 262 94 43 328 321 321 322 317 317 329 315 288 299 311 318 322 310 315 331 303 299 309 293 290 306 322 322 332 353 350 337 333 331 330 329 328 328 327 323 320 321 327 334 321 310 314 320 319 319 318 317 315 316 320 322 323 329 333 333 332 331 330 329 327 324 321 320 319 319 320 320 319 318 317 315 314 315 314 314 313 311 310 309 307 304
75 280 206 182 211 259 273 279 295 313 317 306 303 309 314 319 340 359 344 316 300 308 310 300 306 312 317 327 341 348 340 331 327 328 329 328 328 326 323 320 323 327 329 320 312 312 321 322 317 318 318 316 317 319 320 324 332 339 337 335 334 332 330 328 326 324 322 321 320 321 320 320 319 319 319 318 318 318 318 317 315 313 311 309 307 305
77 305 255 205 221 246 261 275 290 303 297 291 297 304 309 319 346 17 316 292 304 316 308 312 320 315 316 335 350 338 333 330 327 329 329 327 326 324 321 323 327 329 322 316 319 324 324 319 317 318 318 318 320 320 324 335 346 345 339 336 335 333 330 328 325 324 325 323 322 321 319 320 321 321 321 321 321 321 320 318 315 312 310 308 307 307
116 262 255 216 253 262 268 279 286 290 281 278 290 302 311 322 338 338 287 276 297 306 301 311 317 313 319 346 344 332 329 328 327 327 325 324 324 324 325 328 329 326 320 320 327 326 321 317 318 319 321 323 323 325 339 353 351 342 338 337 336 333 330 327 325 325 326 325 322 321 321 323 324 324 325 327 325 322 318 315 312 310 309 309 310 310
139 263 268 258 284 283 281 279 280 286 285 290 304 319 329 324 318 310 288 287 301 299 300 310 313 315 336 346 331 326 325 324 324 325 326 328 327 327 329 330 330 327 324 326 330 327 322 321 324 326 326 325 329 344 358 353 345 341 339 337 335 332 330 328 326 327 327 324 321 322 324 325 327 331 334 332 325 318 314 312 312 312 312 312 312 310
49 292 320 36 314 296 289 284 290 296 293 303 324 341 350 341 334 335 323 320 319 310 310 319 318 317 337 332 322 324 328 327 326 328 330 329 327 329 332 332 332 332 330 330 331 329 329 330 331 330 328 329 344 4 0 348 344 342 339 336 334 331 329 328 328 329 326 323 323 325 326 331 336 338 336 331 324 318 315 314 313 313 313 312 311 309
27 306 347 37 340 297 300 323 324 315 310 337 10 359 353 354 350 343 332 326 323 317 321 330 328 320 327 328 326 329 331 328 328 331 329 326 329 335 337 335 334 333 332 333 332 333 336 336 333 329 329 340 2 4 354 348 346 342 338 335 332 330 329 330 331 328 324 324 327 327 331 340 341 337 332 327 322 318 316 314 313 313 312 311 310 310
89 356 330 15 328 299 316 333 320 313 328 9 28 359 351 349 340 332 327 325 325 328 333 333 327 327 332 333 330 329 329 329 330 330 325 324 335 342 340 337 335 333 333 334 335 338 340 336 330 329 337 1 8 358 352 349 344 341 337 332 330 330 332 333 331 327 326 329 329 329 338 344 338 332 328 324 320 318 316 314 313 312 312 311 309 308
81 50 311 263 309 300 314 327 321 330 355 350 152 31 357 341 336 334 329 329 338 6 355 330 330 332 331 330 327 326 328 329 328 323 321 331 348 344 338 338 337 335 335 337 341 340 335 332 334 337 354 10 4 354 350 347 343 340 336 331 332 335 335 333 330 330 332 330 327 333 343 340 333 328 325 321 319 318 315 314 313 311 310 309 307 307
39 17 306 197 209 274 306 345 349 343 351 161 158 32 1 346 341 334 326 329 359 18 351 337 334 330 327 327 326 325 327 327 323 318 327 352 354 342 338 339 336 336 339 343 341 335 333 343 354 357 1 5 358 350 348 348 346 340 335 334 338 339 335 332 333 334 331 328 331 339 340 334 330 326 323 321 320 317 314 313 312 311 310 308 306 304
94 356 313 231 255 297 332 2 336 301 305 125 79 357 356 354 347 333 324 330 63 15 350 342 331 327 328 327 328 329 327 324 319 321 343 358 351 345 342 336 334 339 345 342 336 338 352 6 6 359 352 349 350 350 351 350 346 338 335 339 341 337 335 335 335 333 331 333 339 339 335 330 327 324 322 322 320 317 315 314 312 311 310 308 304 302
131 99 19 332 339 352 330 322 291 286 304 51 12 346 350 345 339 331 321 325 52 7 351 340 329 330 332 329 331 334 328 323 321 328 348 353 350 347 339 331 336 343 342 340 343 359 11 7 358 351 346 344 352 357 353 347 341 337 337 341 340 337 337 336 335 334 337 340 339 334 330 327 324 323 323 323 321 318 315 313 311 309 308 306 303 301
61 82 98 332 336 62 335 318 315 314 323 50 337 332 351 342 332 325 310 301 19 3 349 339 332 332 332 331 336 335 329 328 328 330 343 350 349 342 333 334 343 343 339 346 0 13 9 357 351 349 349 353 358 355 347 342 339 337 340 342 340 338 337 337 340 342 341 338 333 329 327 325 324 325 324 321 318 315 312 310 308 306 305 302 299 297
24 25 111 89 333 12 345 316 310 308 307 344 332 336 357 343 324 320 313 313 6 359 345 337 333 332 333 336 338 337 334 333 327 327 340 346 342 336 334 339 343 339 342 356 8 10 359 352 351 353 357 360 354 347 345 343 340 340 343 343 340 338 340 344 346 343 338 332 329 327 326 327 327 325 322 318 314 311 308 307 306 305 303 300 297 295
15 5 52 41 309 291 294 274 257 256 259 330 336 339 348 335 326 337 331 326 349 350 340 336 334 333 336 338 337 338 338 330 322 326 336 337 334 335 340 341 338 340 350 359 2 1 354 352 356 360 0 355 347 344 345 342 340 343 345 341 339 342 348 349 344 339 334 330 328 327 328 329 327 323 320 316 313 310 308 308 307 306 305 303 300 298
353 337 26 357 302 298 287 269 278 261 244 322 331 339 348 342 348 16 333 318 335 338 334 336 335 333 338 338 335 335 329 320 318 323 329 333 332 335 340 339 338 346 356 358 359 357 352 355 3 1 354 349 344 343 342 340 343 346 341 340 345 351 351 344 339 336 334 330 328 329 329 328 325 323 321 317 314 313 312 313 312 309 308 307 306 304
345 325 325 324 306 308 296 289 300 276 204 351 343 357 13 2 350 342 323 321 330 330 330 335 333 333 338 336 331 328 321 319 322 323 328 335 334 335 340 339 341 350 353 353 356 355 352 358 3 355 348 346 343 340 341 343 345 343 341 347 353 350 344 340 338 336 333 330 329 329 328 327 327 326 323 321 320 318 317 318 317 314 313 312 309 308
313 314 310 296 287 311 313 320 323 297 353 8 358 5 29 15 326 317 323 324 327 329 332 332 329 335 340 333 328 326 322 322 327 328 332 335 334 338 341 340 342 348 348 348 353 353 353 358 357 350 346 344 341 341 344 344 342 344 351 353 349 343 340 339 338 335 332 331 330 329 329 329 329 328 327 326 326 323 320 321 321 320 318 316 313 314
243 288 307 284 301 350 330 291 291 297 344 10 4 357 5 352 331 324 321 322 328 332 331 328 331 342 342 332 328 328 325 326 328 331 334 333 335 342 342 340 342 344 343 347 352 354 356 355 351 347 344 342 343 344 345 344 346 353 355 350 343 341 340 338 337 335 333 332 331 331 331 331 330 330 330 329 329 327 325 325 325 324 323 324 323 322
242 219 207 228 239 253 247 256 279 309 354 3 354 339 343 342 332 325 321 322 327 330 330 332 340 342 338 333 329 327 327 330 330 332 335 334 339 345 342 340 343 342 340 345 353 358 358 352 346 343 342 343 346 345 345 352 356 354 349 343 341 341 339 338 338 337 334 333 333 333 332 332 332 332 332 333 333 331 328 327 327 326 327 329 330 326
247 199 156 216 266 257 245 262 285 325 347 338 329 308 347 341 328 324 327 323 325 331 336 341 343 338 334 333 333 330 332 332 331 333 336 338 343 344 339 339 343 341 341 346 352 356 354 348 343 342 341 344 346 345 351 0 357 349 343 341 340 341 340 339 338 336 334 334 334 334 334 333 333 334 335 336 337 334 330 328 326 325 328 331 331 329
281 203 182 242 295 311 289 286 314 343 330 324 326 338 341 337 326 326 326 319 327 340 344 341 339 336 335 336 336 334 333 332 333 337 341 344 343 338 337 341 342 340 344 350 350 349 348 345 343 341 340 342 344 347 356 358 352 346 342 341 341 342 341 340 337 335 336 336 334 334 336 335 333 334 336 338 339 338 336 335 332 329 329 329 329 331
276 206 233 267 281 283 275 280 318 331 301 292 308 333 337 336 331 332 331 328 336 345 345 341 341 338 337 339 337 336 334 334 338 344 346 345 339 334 337 344 341 339 347 355 350 346 346 344 342 339 338 340 346 353 356 353 348 345 343 342 342 343 342 340 338 336 336 336 335 335 336 335 334 335 337 338 339 339 337 337 337 333 329 329 331 334
326 337 277 285 285 277 269 287 338 331 290 274 328 339 341 342 336 335 336 339 344 346 343 344 344 342 342 341 339 339 337 337 343 350 348 339 334 334 340 343 339 338 348 352 347 344 345 344 339 337 337 341 349 356 355 350 346 345 343 343 344 344 342 340 337 336 336 337 336 336 336 336 337 338 339 339 340 341 341 340 337 331 329 336 343 343
353 306 282 305 308 303 305 335 357 335 309 314 337 338 339 342 337 335 339 345 348 348 347 345 342 342 345 344 343 343 341 339 343 346 342 335 333 336 340 340 337 339 344 346 343 343 345 342 338 337 340 342 349 355 353 347 344 344 343 345 345 344 342 340 337 336 337 337 337 337 337 337 338 339 341 341 341 342 344 345 345 341 337 341 346 349
206 231 239 320 290 290 309 341 8 331 304 312 328 331 335 343 341 337 343 350 350 352 353 348 339 340 342 342 345 348 345 341 341 339 336 335 335 338 340 339 338 339 342 343 342 343 343 341 338 342 344 342 346 353 350 343 342 343 344 346 346 344 343 341 338 336 336 337 337 336 336 337 338 339 341 342 343 343 342 342 346 349 351 351 349 350